Location: Boussac
(44.2782°N, 2.3665°E)
Time: 08:08:29
(UTC+00:00)

CZ-2C R/B - Pass Details

Date: 15 May 2026
Orbit: 630 x 690 km, 98.1° (Epoch: 5 June)

Event Time Altitude Azimuth Distance (km) Brightness Sun altitude
Rises 22:28:18 0° 19° (NNE) 2,964 7.8 -24.2°
Reaches altitude 10° 22:30:35 10° 25° (NNE) 2,058 6.8 -24.3°
Enters shadow 22:34:16 43° 74° (ENE) 921 4.3 -24.5°
